Merced, CA

8:48 AM PDT on June 26, 2017 (GMT -0700)
Merced Municipal-Macready

Weather History for KMCE - August, 2013

Change the Weather History Date:

Monday, August 19, 2013

  Actual Average Record
Temperature  
Mean Temperature 87 °F 76 °F  
Max Temperature 106 °F 93 °F 106 °F (2013)
Min Temperature 68 °F 59 °F 54 °F (1999)
Degree Days  
Heating Degree Days 0    
Month to date heating degree days 0  
Since 1 June heating degree days 0  
Since 1 July heating degree days 0  
Cooling Degree Days 22    
Month to date cooling degree days 244  
Year to date cooling degree days 1351  
Since 1 June cooling degree days 1114  
Growing Degree Days 38 (Base 50)    
Moisture  
Dew Point 60 °F    
Average Humidity 46    
Maximum Humidity 73    
Minimum Humidity 18    
Precipitation  
Precipitation 0.00 in 0.00 in 0.11 in (1976)
Month to date precipitation 0.00 0.00  
Year to date precipitation 2.78 8.69  
Since 1 July precipitation T  
Snow  
Snow 0.00 in - - ()
Month to date snowfall 0.0  
Since 1 June snowfall 0.0  
Since 1 July snowfall 0.0  
Snow Depth 0.00 in    
Sea Level Pressure  
Sea Level Pressure 29.78 in    
Wind  
Wind Speed 4 mph (NW)    
Max Wind Speed 17 mph    
Max Gust Speed 20 mph    
Visibility 10 miles    
Events Rain , Thunderstorm    
T = Trace of Precipitation, MM = Missing Value Source: NWS Daily Summary

Daily Weather History Graph

Daily Weather History Graph

Search for Another Location

Airport or City:

Trip Planner

Search our weather history database for the weather conditions in past years. The results will help you decide how hot, cold, wet, or windy it might be!

Date:

Astronomy

Aug. 19, 2013 Rise Set
Actual Time 6:22 AM PDT 7:48 PM PDT
Civil Twilight 5:54 AM PDT 8:15 PM PDT
Nautical Twilight 5:21 AM PDT 8:48 PM PDT
Astronomical Twilight 4:47 AM PDT 9:23 PM PDT
Moon 6:43 PM PDT (8/19) 4:47 AM PDT (8/19)
Length of Visible Light 14h 21m
Length of Day
13h 26m
Waxing Gibbous, 98% of the Moon is Illuminated
Aug 19
Waxing Gibbous
Aug 20
Full
Aug 28
Last Quarter
Sep 5
New
Sep 12
First Quarter

Hourly Weather History & Observations

Time (PDT) Temp. Heat Index Dew Point Humidity Pressure Visibility Wind Dir Wind Speed Gust Speed Precip Events Conditions
12:53 AM 75.9 °F - 61.0 °F 60% 29.78 in 10.0 mi North 3.5 mph - N/A   Clear
1:53 AM 78.1 °F - 62.1 °F 58% 29.77 in 10.0 mi Calm Calm - N/A   Clear
2:53 AM 72.0 °F - 62.1 °F 71% 29.77 in 10.0 mi Calm Calm - N/A   Clear
3:53 AM 71.1 °F - 60.1 °F 68% 29.78 in 10.0 mi ESE 3.5 mph - N/A   Clear
4:53 AM 72.0 °F - 61.0 °F 68% 29.77 in 10.0 mi Calm Calm - N/A   Clear
5:53 AM 70.0 °F - 61.0 °F 73% 29.79 in 10.0 mi Calm Calm - N/A   Clear
6:53 AM 71.1 °F - 60.1 °F 68% 29.82 in 9.0 mi Calm Calm - N/A   Clear
7:53 AM 70.0 °F - 61.0 °F 73% 29.83 in 8.0 mi Calm Calm - N/A   Clear
8:53 AM 77.0 °F - 61.0 °F 58% 29.85 in 10.0 mi Calm Calm - N/A   Clear
9:53 AM 84.9 °F 85.0 °F 61.0 °F 44% 29.85 in 10.0 mi SSE 4.6 mph - N/A   Clear
10:53 AM 90.0 °F 90.3 °F 62.1 °F 39% 29.84 in 10.0 mi NW 5.8 mph - N/A   Clear
11:53 AM 95.0 °F 95.6 °F 62.1 °F 33% 29.83 in 10.0 mi NW 6.9 mph - N/A   Clear
12:53 PM 99.0 °F 99.5 °F 60.1 °F 28% 29.81 in 10.0 mi WNW 4.6 mph - N/A   Clear
1:53 PM 102.0 °F 101.6 °F 57.9 °F 23% 29.79 in 10.0 mi NW 8.1 mph - N/A   Clear
2:53 PM 104.0 °F 102.9 °F 55.9 °F 20% 29.76 in 10.0 mi WNW 8.1 mph - N/A   Clear
3:53 PM 104.0 °F 101.8 °F 53.1 °F 18% 29.73 in 10.0 mi WNW 8.1 mph 18.4 mph N/A   Clear
4:53 PM 105.1 °F 103.3 °F 53.1 °F 18% 29.72 in 10.0 mi NW 13.8 mph - N/A   Clear
5:53 PM 104.0 °F 103.4 °F 57.0 °F 21% 29.71 in 10.0 mi NNW 11.5 mph - N/A   Clear
6:53 PM 100.9 °F 100.5 °F 57.9 °F 24% 29.71 in 10.0 mi NW 10.4 mph - N/A   Clear
7:53 PM 97.0 °F 96.1 °F 57.9 °F 27% 29.72 in 10.0 mi NW 8.1 mph - N/A   Clear
8:31 PM 93.2 °F 91.9 °F 57.2 °F 30% 29.78 in 4.0 mi East 16.1 mph 28.8 mph N/A Thunderstorm Haze
8:53 PM 89.1 °F 89.0 °F 61.0 °F 39% 29.81 in 10.0 mi SE 9.2 mph - 0.00 in Rain Light Rain
9:53 PM 89.1 °F 89.0 °F 61.0 °F 39% 29.81 in 10.0 mi Calm Calm - 0.00 in   Partly Cloudy
10:53 PM 86.0 °F 86.3 °F 62.1 °F 44% 29.77 in 10.0 mi West 10.4 mph - N/A   Clear
11:53 PM 82.0 °F 82.4 °F 60.1 °F 47% 29.78 in 10.0 mi North 5.8 mph - N/A   Clear